[[{"header":{"parameterUnit":"m.s-1","parameterCategory":1,"la1":30.2992,"la2":30.254,"lo1":-89.0895,"lo2":-89.0443,"dy":0.0025,"dx":0.0025,"nx":19,"ny":19,"refTime":"2026-05-20T09:00:00:Z","depth":0,"parameterNumber":2,"parameterNumberName":"U-component_of_WINDS"},"data":[0,0,0,-1.715,-1.7151,-1.7151,-1.7151,-1.7166,-1.7166,0,0,0,0,0,0,0,0,0,0,0,-1.7158,-1.7159,-1.715,-1.7151,-1.7151,-1.7151,-1.7166,-1.7166,0,0,0,0,0,0,0,0,0,0,0,-1.7158,-1.7159,-1.7159,-1.7151,-1.7151,-1.7151,-1.7166,-1.716,0,0,0,0,0,0,0,0,0,0,-1.7158,-1.7173,-1.7159,-1.7159,-1.7151,-1.7151,-1.7151,-1.716,-1.7161,-1.7172,0,-1.7183,0,-1.7175,-1.7168,-1.7168,0,0,0,-1.7145,-1.7172,-1.7165,-1.7159,-1.7151,-1.7151,-1.7149,-1.716,-1.7161,-1.7173,-1.7183,-1.7183,-1.7175,-1.7168,-1.7168,-1.725,-1.7251,0,0,-1.7145,-1.7163,-1.7164,-1.7166,-1.7166,-1.7149,-1.7149,-1.7161,-1.7173,-1.7183,-1.7183,-1.7175,-1.7168,-1.7168,-1.7249,-1.725,0,0,0,-1.7149,-1.7163,-1.7155,-1.7166,-1.7165,-1.7149,-1.7149,-1.7172,-1.7168,-1.7183,-1.7175,-1.7168,-1.7169,-1.7249,-1.725,-1.7299,0,0,0,-1.7148,-1.7165,-1.7156,-1.7167,-1.7165,-1.7168,-1.7161,-1.7168,-1.7168,-1.7175,-1.7168,-1.7169,-1.7248,-1.7249,-1.7296,-1.732,0,0,0,-1.7156,-1.7166,-1.7169,-1.7168,-1.7168,-1.7168,-1.7164,-1.7167,-1.7164,-1.7168,-1.7169,-1.7247,-1.7249,-1.7294,-1.7315,-1.7347,0,0,0,-1.7169,-1.7213,-1.717,-1.7217,-1.7168,-1.7199,-1.7164,-1.7185,-1.7195,-1.7169,-1.7248,-1.7249,-1.7293,-1.7313,-1.7344,-1.7376,-1.7391,0,0,-1.7234,-1.7221,-1.7248,-1.7209,-1.7251,-1.7197,-1.7247,-1.7239,-1.7223,-1.7242,-1.7244,-1.7297,-1.7315,-1.7346,-1.7471,-1.7483,0,0,0,-1.7275,-1.7294,-1.7301,-1.7311,-1.7306,-1.7304,-1.7286,-1.7283,-1.7298,-1.7236,-1.7317,-1.7327,-1.7344,-1.7359,-1.7369,-1.7383,-1.7257,-1.7257,-1.7257,-1.7393,-1.7371,-1.7413,-1.7391,-1.7401,-1.7383,-1.739,-1.7383,-1.7357,-1.7377,-1.7382,-1.746,-1.7478,-1.7485,-1.75,-1.7397,-1.7397,-1.7398,-1.7398,-1.7488,-1.7511,-1.7477,-1.7505,-1.7481,-1.7505,-1.749,-1.7471,-1.7491,-1.7454,-1.7468,-1.7429,-1.7499,-1.7511,-1.7401,-1.7401,-1.74,-1.74,-1.74,-1.7563,-1.757,-1.7566,-1.7579,-1.7592,-1.7568,-1.7589,-1.7567,-1.7546,-1.756,-1.7564,-1.7563,-1.7559,-1.7564,-1.7564,-1.7564,-1.7564,-1.7565,-1.7565,-1.7642,-1.7636,-1.7655,-1.7655,-1.7659,-1.7662,-1.7645,-1.7649,-1.7647,-1.763,-1.763,-1.7603,-1.751,-1.7487,-1.7569,-1.7568,-1.7568,-1.7567,-1.7567,-1.7745,-1.7719,-1.7749,-1.7753,-1.7751,-1.7766,-1.7738,-1.7748,-1.7748,-1.7759,-1.7729,-1.7665,-1.7649,-1.7641,-1.7622,-1.7733,-1.7733,-1.7733,-1.7733,-1.7809,-1.7799,-1.7825,-1.7834,-1.784,-1.7818,-1.7854,-1.7843,-1.7826,-1.7825,-1.7806,-1.7779,-1.7772,-1.7761,-1.775,-1.7732,-1.7869,-1.7869,-1.7869,-1.7871,-1.7862,-1.7896,-1.7879,-1.7877,-1.7875,-1.7909,-1.7921,-1.7897,-1.7874,-1.7824,-1.7818,-1.7775,-1.7762,-1.7737,-1.772,-1.7686,0,0]},{"header":{"parameterUnit":"m.s-1","parameterCategory":1,"la1":30.2992,"la2":30.254,"lo1":-89.0895,"lo2":-89.0443,"dy":0.0025,"dx":0.0025,"nx":19,"ny":19,"refTime":"2026-05-20T09:00:00:Z","depth":0,"parameterNumber":3,"parameterNumberName":"V-component_of_WINDS"},"data":[0,0,0,2.824,2.824,2.8251,2.8251,2.8261,2.8261,0,0,0,0,0,0,0,0,0,0,0,2.8235,2.8235,2.824,2.824,2.8251,2.8251,2.8261,2.8261,0,0,0,0,0,0,0,0,0,0,0,2.8235,2.8235,2.8235,2.824,2.8251,2.8251,2.8261,2.8254,0,0,0,0,0,0,0,0,0,0,2.8244,2.8237,2.8235,2.8235,2.824,2.8251,2.8251,2.8253,2.8254,2.8254,0,2.8254,0,2.8258,2.8261,2.8261,0,0,0,2.8241,2.8237,2.8242,2.8235,2.824,2.8251,2.8246,2.8254,2.8255,2.8255,2.8254,2.8255,2.8258,2.8261,2.8261,2.826,2.826,0,0,2.8241,2.8235,2.8241,2.8242,2.8241,2.8246,2.8247,2.8254,2.8253,2.8254,2.8255,2.8258,2.8261,2.8261,2.826,2.826,0,0,0,2.8238,2.8235,2.824,2.8241,2.8244,2.8246,2.8247,2.8253,2.8255,2.8255,2.8258,2.8261,2.8261,2.826,2.826,2.8253,0,0,0,2.8238,2.8233,2.8239,2.8236,2.8244,2.8248,2.8245,2.8254,2.8255,2.8258,2.8261,2.8261,2.826,2.826,2.8253,2.825,0,0,0,2.8235,2.8233,2.8234,2.8236,2.824,2.8249,2.8251,2.8255,2.8257,2.8261,2.8261,2.826,2.826,2.8253,2.825,2.8248,0,0,0,2.8229,2.8226,2.8234,2.8232,2.824,2.8244,2.8251,2.8254,2.8257,2.8261,2.826,2.826,2.8253,2.825,2.8249,2.8246,2.8244,0,0,2.8223,2.8225,2.8225,2.8232,2.8233,2.8243,2.8243,2.825,2.8254,2.8258,2.8258,2.8253,2.825,2.8248,2.8237,2.8235,0,0,0,2.8221,2.822,2.8221,2.8225,2.8231,2.8236,2.8243,2.8246,2.8249,2.8255,2.8252,2.825,2.8249,2.8248,2.8247,2.8247,2.8259,2.8259,2.8259,2.8203,2.821,2.821,2.8219,2.8221,2.823,2.8233,2.8238,2.8243,2.8243,2.8243,2.8236,2.8234,2.8233,2.8233,2.8243,2.8242,2.8242,2.8242,2.8194,2.8194,2.8203,2.8206,2.8213,2.8215,2.8224,2.8228,2.8231,2.8235,2.8235,2.8239,2.8232,2.8232,2.8242,2.8242,2.8242,2.8242,2.8242,2.8183,2.8184,2.8189,2.8195,2.8199,2.8208,2.821,2.8217,2.8223,2.8223,2.8224,2.8225,2.8226,2.8223,2.8223,2.8223,2.8223,2.8223,2.8223,2.817,2.8175,2.8177,2.8185,2.8188,2.8193,2.8203,2.8206,2.8211,2.8216,2.8216,2.8222,2.823,2.8232,2.8223,2.8223,2.8223,2.8223,2.8223,2.8158,2.8162,2.8165,2.8169,2.8178,2.8182,2.8191,2.8197,2.8201,2.8202,2.8208,2.8213,2.8216,2.8217,2.8219,2.8207,2.8207,2.8207,2.8207,2.8149,2.8151,2.8157,2.8162,2.8168,2.8177,2.818,2.8188,2.8196,2.8199,2.8202,2.8204,2.8205,2.8208,2.8209,2.821,2.8196,2.8196,2.8196,2.8142,2.8146,2.8147,2.8157,2.8165,2.8172,2.8175,2.8181,2.8191,2.8196,2.8201,2.8202,2.8206,2.8207,2.8212,2.8214,2.8217,0,0]}]]